Weather Roundup
Issued by NWS Springfield, MO

Home | Current Version | Previous Version | Text Only | Print | Product List | Glossary On
Versions: 1 2 3 4 5 6 7 8 9 10 11 12 13 14 15 16 17 18 19 20 21 22 23 24 25 26 27 28 29 30 31 32 33 34 35 36 37 38 39 40 41 42 43 44 45 46 47 48 49 50
000
NZUS99 KSGF 181007
HRRSGF

HOURLY WEATHER
NATIONAL WEATHER SERVICE SPRINGFIELD MO
400 AM CST SAT NOV 18 2017

......SGF CWA......

CITY           SKY/WX    TMP DP  RH WIND       PRES   REMARKS
SPRINGFIELD    CLOUDY    71  61  70 SW23G31   29.41F
JOPLIN         CLOUDY    72  61  68 SW25G35   29.41S
WEST PLAINS    CLOUDY    67  62  84 S10       29.50F
ROLLA          CLOUDY    67  62  84 S15       29.41F
OSAGE BEACH    CLOUDY    66  61  84 S8        29.38F
BRANSON        CLOUDY    70  61  73 SW12G23   29.49S

......SURROUNDING SGF CWA......

CITY           SKY/WX    TMP DP  RH WIND       PRES   REMARKS
CHANUTE        PTCLDY    57  50  77 W20G28    29.43R
PARSONS        CLOUDY    64  47  53 W15G23    29.45R
COFFEYVILLE    CLOUDY    71  51  49 W15       29.42R
EMPORIA        CLOUDY    51  49  92 NW24G39   29.50R FOG
GROVE OK       MOCLDY    73  61  64 SW16G25     N/A
ROGERS AR      CLOUDY    68  62  81 SW18      29.51S
SILOAM SPRINGS CLOUDY    69  62  78 SW21      29.51S
HARRISON AR    PTCLDY    70  61  73 SW13G22   29.50F
NEAR YELLVILLE PTCLDY    71  63  75 MISG      29.49F

......KANSAS AND MISSOURI......

CITY           SKY/WX    TMP DP  RH WIND       PRES   REMARKS
KANSAS CTY INT CLOUDY    54  54 100 N22G29    29.42R FOG
DOWNTOWN KC    CLOUDY    58  54  86 N16G24    29.40R
COLUMBIA       MOCLDY    64  61  90 S7        29.37F
SEDALIA        PTCLDY    64  63  96 SE3       29.36F
ST JOSEPH      LGT RAIN  49  47  93 N24G35    29.51R
ST LOUIS       CLOUDY    64  60  87 S8        29.43F
SPIRIT OF STL  CLOUDY    64  61  90 SE3       29.42F
KIRKSVILLE     CLOUDY    48  48 100 N20G28    29.43F FOG
WICHITA        CLOUDY    50  41  71 NW23G44   29.60R
TOPEKA         CLOUDY    52  52 100 N21G32    29.50R
OLATHE         CLOUDY    57  57 100 N15       29.39R FOG

......TENNESSEE......

CITY           SKY/WX    TMP DP  RH WIND       PRES   REMARKS
MEMPHIS        CLOUDY    68  61  78 S21G31    29.71F
NASHVILLE      CLOUDY    61  47  59 S20G29    29.79F

......ARKANSAS.......

CITY           SKY/WX    TMP DP  RH WIND       PRES   REMARKS
FAYETTEVILLE   CLOUDY    68  64  87 SW16G25   29.52F
FT SMITH       MOCLDY    74  63  68 SW16G28   29.53F
LITTLE ROCK    CLOUDY    70  65  84 SW25G39   29.63F

......OKLAHOMA.......

CITY           SKY/WX    TMP DP  RH WIND       PRES   REMARKS
TULSA          CLOUDY    74  57  55 SW14      29.47R
PONCA CITY     PTCLDY    51  42  71 NW14G26   29.56R
MCALESTER      PTCLDY    72  63  73 SW15G29   29.55S
OKLAHOMA CITY  MOCLDY    65  46  50 SW13      29.55R

......IOWA............

CITY           SKY/WX    TMP DP  RH WIND       PRES   REMARKS
DES MOINES     LGT RAIN  41  39  93 N13       29.58F
QUAD CITIES    LGT RAIN  45  41  86 N12G17    29.50F

......ILLINOIS........

CITY           SKY/WX    TMP DP  RH WIND       PRES   REMARKS
QUINCY         LGT RAIN  52  51  97 NE9       29.40F FOG
CHICAGO        CLOUDY    46  44  93 NE5       29.50F FOG



USA.gov is the U.S. government's official web portal to all federal, state and local government web resources and services.